Location: Gollag?dem
(16.8053°N, 80.8024°E)
Time: 13:01:07
(UTC+00:00)

Cosmos 1441 Rocket - Pass Details

Date: 13 August 2020
Orbit: 497 x 540 km, 81.1° (Epoch: 24 September)

Event Time Altitude Azimuth Distance (km) Brightness Sun altitude
Rises 13:28:57 0° 164° (SSE) 2,632 6.5 -6.8°
Reaches altitude 10° 13:31:20 10° 151° (SSE) 1,738 5.4 -7.3°
Maximum altitude 13:34:33 26° 94° (E) 1,030 4.2 -8.1°
Drops below altitude 10° 13:37:44 10° 36° (NE) 1,720 5.7 -8.8°
Sets 13:40:05 0° 23° (NNE) 2,599 6.7 -9.3°
